Wind_Speed
10 11 12 12 13 13 13 14 15 14 14 15 15 15 14 17 17 21 21 12 5 2 7 7 3 4 7 4 7 4 2 5 4 2 2 0 6 14 16 21 37 14 16 31 33
10 11 12 13 13 14 13 14 15 14 14 15 14 13 14 16 19 16 6 3 3 3 5 4 2 5 4 3 4 4 3 4 8 5 8 3 18 18 11 20 8 19 26 34 35
11 13 13 14 15 14 14 15 15 14 14 13 13 11 13 14 14 5 4 3 2 3 2 4 4 5 3 5 5 2 5 5 16 26 24 14 28 18 26 15 33 36 42 35 37
13 14 14 14 15 15 15 14 13 11 11 11 10 9 11 8 1 5 5 4 4 2 5 6 3 3 2 3 8 1 14 19 23 32 17 9 15 17 27 9 32 35 45 42 42
14 14 15 15 15 16 15 12 11 12 10 8 7 8 7 5 6 4 4 4 3 1 7 3 4 3 4 5 8 5 12 27 32 31 29 13 7 15 21 24 34 40 41 40 35
15 16 15 16 15 15 14 10 12 11 8 7 5 6 4 3 2 2 8 2 4 2 11 7 5 7 10 5 3 8 13 19 17 19 16 3 6 9 8 37 27 36 34 33 33
15 16 16 16 15 15 11 11 12 9 6 6 4 4 7 8 5 1 8 2 4 3 4 9 13 10 15 8 10 10 6 10 8 6 5 2 3 5 28 33 35 36 36 37 34
15 16 16 15 14 13 10 10 10 7 3 3 3 5 6 1 7 8 3 5 0 4 10 10 11 9 3 11 11 7 4 6 8 5 11 6 8 5 37 38 32 26 37 43 38
16 16 15 14 13 10 9 8 7 4 3 2 2 4 5 5 9 7 6 6 7 3 7 10 10 5 7 4 6 6 4 6 10 3 5 5 10 12 36 34 27 36 45 34 31
16 15 15 13 11 8 8 8 6 5 5 4 6 6 2 2 2 10 9 10 5 6 7 7 2 2 4 4 4 7 4 6 7 9 4 8 13 20 32 34 33 32 24 29 31
16 15 13 12 8 5 10 4 6 3 11 11 13 15 16 4 8 7 5 2 7 7 3 3 4 5 11 10 8 3 5 8 5 5 2 6 5 20 24 16 20 24 31 33 32
16 14 12 9 5 5 7 8 8 8 9 15 15 19 17 9 4 4 9 8 4 6 2 6 7 14 7 8 10 10 7 8 7 8 5 9 1 4 24 28 35 34 36 37 34
15 13 10 5 2 4 5 7 8 6 4 12 12 15 14 9 8 6 14 8 6 6 6 5 13 7 6 9 5 4 4 5 6 8 3 4 8 7 3 30 33 32 51 45 49
15 13 10 2 0 6 10 12 10 15 4 6 4 4 9 4 4 15 19 8 2 5 4 6 5 4 4 2 3 5 3 5 5 6 2 4 3 8 15 14 13 32 39 46 50
15 12 9 3 3 5 9 8 10 3 3 4 4 3 8 8 3 9 21 10 7 8 4 9 7 6 4 2 3 8 2 2 3 5 3 9 6 9 18 20 23 12 46 52 58
14 13 8 3 4 5 5 5 6 4 3 3 8 7 6 10 4 18 15 13 5 3 1 7 11 1 3 2 1 4 5 8 5 4 5 5 5 9 8 9 17 22 10 28 32
13 12 8 5 7 5 7 4 4 3 5 4 5 5 7 5 5 7 6 4 4 3 5 6 5 7 4 4 8 8 7 4 5 5 4 2 8 2 5 4 10 12 16 9 29
14 11 8 4 6 3 2 5 1 4 5 6 4 4 6 7 5 9 5 2 3 3 2 4 8 7 7 3 4 2 6 5 1 2 5 7 2 4 3 4 16 24 23 26 21
14 10 3 8 7 4 3 4 6 3 4 7 5 3 4 2 3 4 3 4 3 4 6 3 4 4 2 5 4 6 5 2 3 2 4 0 3 5 1 8 21 17 20 16 17
14 8 4 8 6 3 4 4 4 3 5 4 5 5 5 5 3 5 2 5 3 3 7 4 0 3 7 9 9 6 1 3 4 2 2 1 2 4 5 3 9 5 8 14 8
10 3 7 6 9 3 3 6 5 6 4 4 2 4 3 4 5 2 5 3 5 4 10 3 4 6 5 1 2 6 4 6 3 4 4 1 5 7 8 5 10 12 13 11 8
4 2 9 7 1 1 2 4 4 3 2 3 2 2 2 4 5 4 2 2 4 2 3 2 4 2 7 5 6 0 3 4 4 4 1 3 6 3 10 7 5 13 11 11 8
11 5 4 9 1 2 5 6 12 4 3 3 4 2 2 2 2 3 1 3 6 3 5 1 2 3 9 6 7 4 3 3 4 3 4 5 5 4 4 3 6 19 15 12 9
5 4 3 3 3 1 4 4 6 4 3 5 2 4 5 4 4 2 2 3 4 3 5 5 3 6 7 4 2 5 6 2 3 2 3 5 5 8 5 7 9 18 17 15 13
4 2 6 3 5 5 3 3 4 6 6 2 3 1 1 2 4 4 5 7 9 4 2 4 3 4 4 5 1 4 8 7 5 5 5 7 6 8 4 7 14 17 16 13 9
4 5 7 7 11 5 3 4 3 4 2 3 4 5 6 5 2 2 1 2 2 6 6 6 2 2 3 4 3 4 9 9 9 9 6 8 7 3 19 25 20 17 18 13 12
4 3 2 5 6 3 1 7 8 0 12 8 5 5 6 3 1 2 4 3 3 3 1 2 1 2 4 4 4 1 8 7 4 4 5 4 8 16 10 14 17 18 15 11 8
Wind_Direction
334 330 328 325 324 320 318 315 309 305 304 296 293 294 301 300 303 302 297 295 231 277 311 290 252 169 181 228 224 223 77 264 257 277 271 22 99 112 169 165 191 226 171 163 166
334 330 330 327 323 321 319 317 311 309 301 292 292 295 301 305 313 315 326 328 226 283 292 270 137 144 176 225 226 137 154 228 215 259 287 242 150 140 152 155 188 148 148 148 169
337 330 333 329 324 325 322 320 314 308 299 293 292 298 299 310 328 17 355 30 3 328 285 207 190 318 251 230 231 190 212 225 276 276 276 277 137 146 149 178 163 152 156 164 175
336 335 334 332 329 329 326 322 318 313 304 300 295 297 295 309 336 353 346 18 9 308 204 195 252 219 228 231 230 242 256 256 267 273 276 264 154 158 154 155 175 160 160 166 173
337 336 335 336 335 334 329 326 318 318 311 310 303 289 289 301 280 353 315 1 3 252 187 223 283 226 211 232 277 193 268 277 277 278 278 268 209 183 186 189 185 160 164 172 174
341 337 340 338 338 338 332 325 320 316 319 326 316 284 287 290 345 31 350 258 53 168 192 245 290 323 284 251 172 261 274 280 289 285 283 239 145 141 193 170 168 162 168 174 177
342 339 340 339 341 342 338 326 328 316 315 323 316 296 273 233 54 290 347 166 123 5 277 309 320 297 282 315 320 292 312 319 284 272 290 156 356 206 156 166 166 170 175 177 180
344 341 340 340 345 346 339 340 342 339 310 312 327 310 257 130 228 257 282 185 98 320 301 314 307 324 327 314 328 354 23 356 283 325 277 102 269 116 161 167 176 181 183 181 180
344 344 341 339 348 348 346 345 347 355 355 315 295 301 265 220 227 228 210 247 297 254 274 301 313 332 328 50 357 3 275 295 309 293 268 134 250 152 173 178 180 186 187 185 183
345 346 344 339 349 359 353 327 325 304 332 313 259 309 267 262 164 191 233 261 293 263 276 260 306 28 11 82 227 244 319 309 280 294 200 241 240 159 174 176 184 186 187 183 193
346 345 344 339 345 23 21 16 358 348 313 264 274 275 296 226 167 192 203 251 252 299 210 298 51 240 231 205 228 254 254 246 247 265 231 303 227 166 178 174 183 184 182 188 198
344 343 344 337 359 52 46 44 22 331 306 297 276 267 258 255 192 190 184 213 261 249 32 3 242 246 231 253 241 255 243 304 291 290 25 333 215 130 176 186 191 185 188 192 190
341 343 341 345 34 33 12 19 358 346 298 292 240 249 250 216 212 234 188 221 252 277 267 181 256 283 201 254 1 309 265 286 299 314 2 41 341 359 299 188 207 194 196 191 193
341 341 341 351 112 20 47 1 331 310 58 278 201 240 172 172 260 221 198 193 234 247 257 238 292 268 172 292 90 309 343 325 323 36 327 54 289 346 348 337 187 192 199 202 206
340 339 330 298 148 51 0 358 338 342 51 215 185 202 182 167 211 191 196 198 229 262 59 273 299 317 247 238 21 245 299 23 9 14 24 355 64 326 22 8 358 212 199 202 204
340 327 322 282 165 10 342 326 313 44 271 216 153 179 132 229 251 176 190 214 236 268 297 248 294 359 221 280 56 282 30 19 47 55 13 294 105 5 25 12 12 22 151 205 213
339 324 314 270 177 348 324 27 46 134 308 186 179 162 191 227 189 189 185 180 169 68 341 342 338 317 32 16 356 48 51 346 359 15 219 103 66 186 278 340 41 33 26 208 193
337 323 307 272 207 332 3 57 81 268 283 270 139 151 186 216 227 192 148 179 141 123 87 54 343 7 341 360 229 104 133 141 355 277 269 353 130 239 229 83 55 74 78 98 142
330 324 313 134 124 91 74 78 211 241 308 350 333 99 321 269 143 84 132 171 150 147 125 92 290 310 323 348 41 313 45 226 127 32 55 13 329 294 273 51 51 50 92 112 144
331 341 144 154 138 140 79 223 250 270 306 29 40 45 25 314 171 144 100 352 72 54 122 213 30 335 315 12 22 65 322 19 16 87 326 1 306 230 296 86 123 104 116 122 136
332 356 125 143 157 150 155 231 286 289 49 47 80 22 29 4 353 63 19 12 37 29 61 48 95 293 11 66 346 351 349 50 118 128 153 231 265 216 229 245 145 177 168 139 113
357 23 161 183 168 147 173 212 320 221 84 47 55 29 41 36 14 52 95 87 31 49 67 335 133 218 247 279 230 262 117 110 111 276 104 134 276 299 222 286 124 172 149 153 140
343 297 205 212 164 284 290 284 276 198 52 33 54 59 312 113 59 72 118 46 57 79 152 180 29 17 343 353 9 27 62 97 94 69 198 147 257 343 283 76 62 140 146 128 123
0 6 331 205 67 335 358 334 341 14 118 113 118 43 35 24 47 336 21 197 126 114 136 111 116 160 205 211 251 320 334 71 134 127 242 212 265 312 313 122 83 131 134 112 78
20 13 11 325 340 340 32 313 358 355 1 75 31 117 317 292 24 41 13 4 40 76 9 97 158 199 254 263 342 312 312 300 230 229 187 272 223 256 310 127 114 130 147 127 87
31 15 355 306 318 358 3 310 306 302 356 290 104 65 83 106 14 154 55 67 165 340 21 349 264 149 267 261 311 305 281 279 274 267 247 247 278 181 115 107 100 100 107 109 81
51 30 337 312 337 17 357 341 318 16 46 75 123 101 72 134 114 268 273 246 211 134 349 39 127 87 246 337 344 313 237 235 246 263 251 297 270 120 102 101 103 99 92 80 55
Height
1536 1535 1534 1532 1530 1528 1526 1524 1522 1520 1518 1517 1515 1514 1513 1512 1510 1507 1504 1505 1506 1506 1507 1508 1508 1509 1511 1512 1513 1514 1526 1531 1524 1518 1511 1501 1506 1511 1513 1516 1521 1524 1520 1522 1530
1535 1534 1532 1531 1529 1526 1524 1522 1520 1518 1516 1515 1513 1512 1511 1510 1507 1504 1504 1502 1504 1505 1506 1507 1508 1509 1510 1511 1511 1510 1524 1519 1510 1506 1506 1507 1498 1507 1515 1522 1527 1519 1519 1523 1528
1534 1533 1530 1529 1527 1524 1522 1519 1517 1515 1514 1513 1512 1511 1510 1509 1507 1504 1503 1503 1503 1504 1505 1507 1508 1510 1510 1510 1508 1508 1515 1505 1503 1501 1501 1498 1501 1508 1515 1515 1507 1507 1514 1519 1523
1533 1531 1528 1527 1525 1522 1519 1517 1515 1514 1512 1511 1510 1508 1509 1509 1511 1504 1504 1503 1502 1503 1506 1507 1509 1510 1510 1510 1505 1510 1501 1500 1498 1496 1498 1498 1505 1510 1505 1512 1504 1502 1505 1511 1517
1532 1529 1527 1524 1522 1519 1517 1514 1514 1512 1510 1509 1508 1508 1508 1508 1505 1504 1504 1503 1503 1503 1506 1507 1506 1507 1509 1505 1504 1507 1499 1495 1494 1494 1492 1495 1494 1495 1496 1496 1508 1506 1509 1515 1522
1530 1528 1524 1522 1520 1518 1515 1513 1512 1511 1509 1508 1507 1508 1508 1508 1504 1504 1504 1504 1504 1504 1506 1506 1506 1506 1504 1504 1504 1498 1495 1492 1489 1488 1486 1489 1491 1493 1497 1499 1511 1511 1514 1518 1521
1529 1526 1522 1521 1519 1516 1514 1512 1510 1509 1508 1508 1508 1507 1507 1504 1504 1504 1505 1504 1504 1505 1506 1507 1506 1506 1503 1500 1499 1496 1496 1488 1484 1484 1484 1484 1489 1492 1494 1502 1503 1508 1511 1515 1519
1528 1524 1521 1519 1517 1515 1513 1511 1509 1508 1508 1508 1507 1507 1503 1503 1503 1503 1504 1505 1505 1505 1505 1505 1505 1504 1502 1500 1497 1499 1498 1509 1484 1482 1481 1485 1502 1491 1493 1497 1500 1503 1507 1509 1510
1526 1523 1520 1517 1515 1514 1513 1511 1510 1508 1508 1507 1508 1507 1502 1502 1502 1502 1503 1504 1504 1504 1505 1505 1503 1502 1502 1508 1517 1512 1520 1510 1497 1481 1484 1486 1493 1489 1490 1494 1496 1500 1503 1511 1513
1524 1521 1518 1516 1514 1514 1513 1511 1509 1508 1508 1508 1507 1509 1501 1501 1500 1501 1503 1504 1504 1504 1504 1504 1504 1505 1508 1517 1536 1519 1514 1508 1506 1485 1483 1483 1483 1489 1491 1490 1491 1499 1505 1507 1505
1522 1520 1517 1515 1515 1515 1513 1511 1513 1510 1507 1505 1504 1503 1500 1499 1500 1501 1502 1504 1503 1503 1506 1504 1512 1517 1507 1506 1504 1505 1509 1509 1493 1479 1482 1483 1477 1489 1493 1498 1498 1500 1503 1502 1498
1521 1519 1517 1516 1515 1514 1513 1514 1512 1513 1505 1498 1498 1498 1498 1499 1500 1500 1502 1504 1503 1506 1504 1511 1515 1496 1497 1499 1501 1503 1504 1499 1486 1477 1478 1480 1474 1470 1486 1487 1486 1491 1495 1495 1496
1521 1518 1517 1515 1514 1514 1514 1513 1511 1511 1509 1496 1494 1494 1495 1497 1497 1498 1502 1502 1502 1505 1505 1514 1497 1489 1494 1496 1493 1495 1497 1496 1496 1480 1478 1480 1491 1485 1476 1485 1485 1488 1479 1486 1483
1519 1517 1514 1514 1517 1514 1513 1511 1510 1510 1518 1500 1492 1492 1494 1494 1496 1495 1498 1500 1501 1503 1501 1502 1493 1490 1488 1489 1491 1502 1486 1487 1488 1495 1511 1486 1525 1503 1493 1485 1486 1486 1481 1478 1479
1518 1515 1514 1514 1513 1512 1511 1510 1509 1508 1533 1491 1490 1490 1491 1494 1493 1492 1494 1497 1499 1499 1502 1504 1494 1493 1491 1488 1485 1495 1482 1486 1486 1498 1498 1498 1522 1531 1501 1500 1490 1476 1468 1465 1466
1518 1515 1513 1512 1511 1511 1509 1508 1508 1522 1527 1492 1486 1489 1493 1491 1492 1493 1493 1495 1494 1495 1496 1497 1488 1486 1486 1482 1482 1481 1485 1492 1498 1507 1528 1508 1517 1532 1518 1515 1501 1486 1482 1483 1488
1515 1512 1510 1510 1510 1509 1508 1507 1524 1529 1491 1492 1491 1488 1490 1491 1491 1491 1492 1496 1504 1511 1513 1499 1495 1488 1484 1488 1485 1487 1508 1534 1533 1538 1534 1508 1521 1526 1515 1505 1500 1496 1491 1471 1483
1511 1509 1508 1508 1508 1508 1507 1511 1528 1506 1497 1483 1482 1485 1495 1488 1489 1489 1494 1501 1495 1499 1515 1519 1524 1498 1490 1492 1494 1492 1504 1536 1541 1546 1535 1506 1526 1524 1507 1505 1501 1496 1495 1488 1493
1510 1507 1506 1506 1506 1507 1509 1528 1522 1504 1493 1491 1485 1491 1491 1485 1485 1488 1493 1500 1494 1495 1514 1521 1515 1494 1492 1490 1491 1496 1513 1502 1519 1524 1532 1526 1520 1507 1502 1497 1493 1502 1499 1495 1494
1507 1504 1504 1505 1506 1508 1512 1521 1508 1497 1493 1491 1501 1495 1504 1496 1492 1491 1494 1497 1498 1494 1493 1505 1519 1499 1492 1488 1493 1498 1502 1519 1531 1541 1540 1533 1528 1525 1505 1500 1492 1499 1498 1493 1495
1507 1504 1504 1505 1507 1509 1520 1516 1503 1496 1494 1496 1499 1500 1502 1503 1497 1495 1502 1499 1496 1498 1497 1503 1514 1514 1501 1505 1508 1511 1514 1524 1527 1532 1543 1547 1536 1505 1500 1496 1494 1494 1493 1492 1491
1506 1505 1504 1506 1509 1509 1513 1505 1499 1496 1494 1494 1494 1495 1500 1499 1502 1502 1503 1500 1498 1498 1507 1508 1517 1526 1516 1501 1499 1500 1510 1519 1536 1531 1536 1540 1535 1493 1492 1495 1494 1490 1493 1493 1493
1507 1505 1504 1505 1514 1513 1504 1501 1497 1495 1495 1495 1498 1498 1497 1501 1506 1503 1502 1500 1499 1501 1506 1506 1523 1539 1530 1514 1505 1508 1509 1513 1523 1529 1532 1540 1529 1491 1491 1491 1492 1494 1496 1495 1497
1510 1510 1504 1504 1506 1507 1508 1504 1501 1495 1494 1495 1498 1497 1499 1502 1501 1504 1505 1501 1501 1502 1504 1503 1521 1527 1541 1525 1520 1519 1515 1513 1519 1534 1526 1526 1512 1497 1493 1493 1494 1495 1496 1497 1497
1513 1513 1515 1516 1508 1508 1507 1504 1503 1502 1496 1495 1498 1498 1502 1505 1505 1511 1508 1506 1506 1508 1507 1509 1522 1519 1518 1516 1516 1517 1514 1511 1516 1515 1519 1507 1506 1498 1493 1495 1496 1495 1496 1496 1497
1514 1515 1515 1513 1510 1508 1506 1505 1503 1501 1500 1499 1501 1505 1504 1513 1513 1514 1510 1513 1515 1512 1512 1513 1521 1516 1519 1512 1513 1517 1512 1508 1507 1504 1504 1501 1502 1491 1494 1496 1499 1500 1500 1501 1501
1516 1517 1516 1513 1511 1511 1510 1510 1506 1499 1503 1500 1502 1506 1510 1511 1510 1511 1511 1511 1511 1513 1517 1518 1521 1526 1529 1515 1515 1523 1508 1503 1498 1495 1496 1503 1494 1493 1497 1498 1499 1501 1503 1502 1500